Location: Monrovia
(34.7865°N, 86.7139°W)
Time: 22:09:24
(UTC+00:00)

Meteor 1-27 Rocket - Pass Details

Date: 14 July 2020
Orbit: 830 x 910 km, 81.3° (Epoch: 08 August)

Event Time Altitude Azimuth Distance (km) Brightness Sun altitude
Rises 05:58:48 0° 352° (N) 3,434 7.9 -33.6°
Reaches altitude 10° 06:01:13 10° 353° (N) 2,506 7.0 -33.6°
Enters shadow 06:05:24 51° 0° (N) 1,083 4.4 -33.5°
